OpenBCM V1.13 (Linux)

Packet Radio Mailbox

DB0FHN

[JN59NK Nuernberg]

 Login: GUEST





  
I0OJJ  > AMSAT    27.08.26 22:48l 331 Lines 15647 Bytes #999 (0) @ WW
BID : 3YE_IR0EQ
Read: GUEST DJ6UX
Subj: 2Line Orbital Elements
Path: DB0FHN<DB0FFL<OE2XZR<OK1TOR<SR6DWH<SR1BSZ<EA2RCF<IR0EQ
Sent: 260811/0026z @:IR0EQ.ITA.EU [Rome] $:3YE_IR0EQ

>From i0ojj@rgate.ampr.org Tue Aug 11 02:26:25 2026
Received: from rgate.ampr.org by rgate.ampr.org (JNOS2.0q.1) with SMTP
	id AA5126 ; Tue, 11 Aug 2026 02:26:25 +0200
Received: by rgate.ampr.org with SMTP
	id AA5123 ; Tue, 11 Aug 2026 02:25:59 +0200
Message-Id: <5124@rgate.ampr.org>
>From: i0ojj@rgate.ampr.org

SB KEPS @ AMSAT  $ORB26223.1
2Line Orbital Elements 26223.AMSAT

QST de W1STR

AMSAT Orbital Elements for Amateur Satellites in TLE Format
>From Orbital Analysis Office
New England Sci-Tech STEM Education Center
Natick MA August 11, 2026
To all radio amateurs


These element sets describe the orbits of various satellites 
in use by the amateur radio community. For details see:
www.amsat.org/keplerian-elements-formats/

A daily update of element sets is available at:
www.amsat.org/tle/daily-bulletin.txt
or without bulletin text:
www.amsat.org/tle/dailytle.txt


AO-07
1 07530U 74089B   26222.50605600 -.00000028  00000-0  11427-3 0  9998
2 07530 101.9917 236.3200 0012447  29.3038 126.0638 12.53698972367323
UO-11
1 14781U 84021B   26222.45213944  .00000843  00000-0  91143-4 0  9999
2 14781  97.8107 187.4389 0007955  16.5744 343.5733 14.90912227265219
LO-19
1 20442U 90005G   26222.53149222  .00000040  00000-0  30825-4 0  9994
2 20442  98.8845 245.8314 0012401  50.6486 309.5794 14.34136890910185
AO-27
1 22825U 93061C   26222.19058267  .00000020  00000-0  24485-4 0  9999
2 22825  98.6844 289.5745 0007380 306.6605  53.3899 14.30954537714723
FO-29
1 24278U 96046B   26222.50347360 -.00000004  00000-0  34384-4 0  9991
2 24278  98.5200  63.9299 0349078 315.6307  41.7340 13.53276714480519
GO-32
1 25397U 98043D   26222.50252696  .00000016  00000-0  27093-4 0  9991
2 25397  99.0113 216.6414 0002325  73.7873 286.3561 14.24437590459066
ISS
1 25544U 98067A   26222.50435993  .00003786  00000-0  75820-4 0  9992
2 25544  51.6324  31.2750 0007420  32.4605 327.6839 15.49403146580170
NO-44
1 26931U 01043C   26222.07962161  .00000024  00000-0  39771-4 0  9992
2 26931  67.0503 104.8814 0005670 268.8663  91.1789 14.31973686298166
SO-50
1 27607U 02058C   26222.50385391  .00000493  00000-0  75995-4 0  9990
2 27607  64.5534 320.9174 0073648 252.5030 106.8018 14.83151495272514
CO-55
1 27844U 03031E   26222.47876874  .00000141  00000-0  80001-4 0  9996
2 27844  98.6758 230.3593 0010251  34.3083 325.8756 14.24365041199404
RS-22
1 27939U 03042A   26222.54106414  .00000201  00000-0  39128-4 0  9998
2 27939  98.3485  48.4443 0012550  95.2644 349.3524 14.73553343223554
CO-65
1 32785U 08021C   26222.53227922  .00001967  00000-0  12551-3 0  9992
2 32785  97.8320 205.1137 0008152 191.7298 168.3742 15.09905892993390
CO-66
1 32791U 08021J   26222.48570688  .00010150  00000-0  30622-3 0  9996
2 32791  97.7542 223.0562 0004908 108.3378 251.8398 15.34488124995615
RS-30
1 32953U 08025A   26222.58214190 -.00000021  00000-0 -22274-3 0  9996
2 32953  82.5073 321.6086 0019592 189.6070 170.4638 12.43181632826457
SRMSAT
1 37841U 11058D   26222.03169832  .00000324  00000-0  31997-4 0  9996
2 37841  19.9718  93.5535 0011764  76.8227  67.5694 14.11585739765437
ZACUBE-1
1 39417U 13066B   26222.45974624  .00002703  00000-0  20983-3 0  9992
2 39417  97.7994 185.0531 0043049  70.7212 289.8661 15.01495670688878
Delfi-N3xt
1 39428U 13066N   26222.51283903  .00004254  00000-0  36706-3 0  9997
2 39428  97.8299 142.7847 0074463  27.1658 333.3427 14.95683074682747
GOMX-1
1 39430U 13066Q   26222.52125816  .00000747  00000-0  11912-3 0  9994
2 39430  97.6462  59.5583 0126726 262.9212  95.7570 14.69595735677892
LO-74
1 39440U 13066AA  26222.44906373  .00001042  00000-0  10028-3 0  9997
2 39440  97.8933 171.6804 0056289 206.0177 153.8211 14.94099380685097
AO-73
1 39444U 13066AE  26222.40181703  .00005014  00000-0  30661-3 0  9997
2 39444  97.8317 195.0183 0036472  22.2928 337.9876 15.10168320687848
DTUSAT-2
1 40030U 14033W   26222.45099293  .00003523  00000-0  18907-3 0  9994
2 40030  98.0895 223.6580 0009270  58.2185 301.9948 15.15651568660909
LILACSAT-2
1 40908U 15049K   26222.54880763  .00010630  00000-0  17064-3 0  9996
2 40908  97.4614 261.5095 0008087  65.5958 294.6137 15.53201801604180
Lapan A3
1 41603U 16040E   26222.55487378  .00001843  00000-0  59320-4 0  9995
2 41603  97.1531 216.9364 0010311 169.4413 190.7049 15.33416790563145
CAS-2T
1 41847U 16066G   26222.25927465  .00000242  00000-0  43841-4 0  9999
2 41847  98.3794 297.3771 0340633 325.6729  32.2862 14.44802375512600
TechnoSat
1 42829U 17042E   26222.43245668  .00001568  00000-0  11374-3 0  9990
2 42829  97.4351  18.0566 0015871 268.3402  91.6007 15.05234623494864
AO-91
1 43017U 17073E   26222.37146978  .00005917  00000-0  25409-3 0  9997
2 43017  97.4636  88.4825 0149662 140.9210 220.2948 15.13409143473587
S-Net D
1 43186U 18014G   26222.28969199  .00002765  00000-0  14279-3 0  9999
2 43186  97.5300 126.7430 0007919 177.5940 182.5333 15.17121001466965
S-Net B
1 43187U 18014H   26222.23626993  .00002518  00000-0  13046-3 0  9994
2 43187  97.5306 126.6781 0008701 174.0799 186.0538 15.17089102466954
S-Net A
1 43188U 18014J   26222.28827525  .00002759  00000-0  14246-3 0  9994
2 43188  97.5315 126.9489 0008544 174.5897 185.5430 15.17129138466962
S-Net C
1 43189U 18014K   26222.30641913  .00002494  00000-0  12926-3 0  9992
2 43189  97.5333 127.0500 0010113 168.9985 191.1472 15.17079500465515
Ten-Koh
1 43677U 18084G   26222.51377238  .00000372  00000-0  32522-4 0  9998
2 43677  98.0744  57.1714 0008321 302.2829  57.7588 15.03129088424328
PO-101
1 43678U 18084H   26222.51657579  .00001065  00000-0  89328-4 0  9994
2 43678  98.1217  61.1133 0010933 357.2395   2.8765 15.00641474424362
QO-100
1 43700U 18090A   26222.50989880  .00000131  00000-0  00000+0 0  9997
2 43700   0.0192  97.7567 0002405  81.0854 349.4663  1.00270652 28228
MinXSS-2
1 43758U 18099A   26222.17022852  .00026373  00000-0  45988-3 0  9993
2 43758  97.4501 300.1740 0007385  77.7558 282.4520 15.50674350422481
AO-95
1 43770U 18099N   26222.13101010  .00007261  00000-0  27005-3 0  9992
2 43770  97.4350 282.2063 0009600 148.4405 211.7412 15.27773336421453
SNUSat 2
1 43782U 18099AA  26222.49915907  .00004784  00000-0  20850-3 0  9990
2 43782  97.4027 275.0641 0011912 104.7545 255.5012 15.22600378421292
SnugLite
1 43784U 18099AC  26222.11447653  .00006962  00000-0  25550-3 0  9991
2 43784  97.3835 275.8919 0004681 100.0443 260.1325 15.28259199421552
ITASat 1
1 43786U 18099AE  26222.09183650  .00004224  00000-0  20080-3 0  9996
2 43786  97.3996 272.5381 0013200 157.1353 203.0472 15.19663741421099
EAGLET 1
1 43790U 18099AJ  26222.41193813  .00002526  00000-0  14526-3 0  9990
2 43790  97.4199 270.6453 0011941 151.0838 209.1057 15.13303035420535
ESEO
1 43792U 18099AL  26222.52481345  .00001114  00000-0  83870-4 0  9995
2 43792  97.3936 257.5819 0012805 142.8363 217.3753 15.04384549419975
JO-97
1 43803U 18099AX  26222.15528676  .00010678  00000-0  31353-3 0  9999
2 43803  97.4098 285.2272 0007062  85.1835 275.0214 15.35301846421903
Suomi 100
1 43804U 18099AY  26222.13193647  .00008229  00000-0  28897-3 0  9992
2 43804  97.4156 282.3564 0011432  91.6889 268.5661 15.29600643421664
ISAT
1 43879U 18111D   26222.36909773  .00121900  00000-0  71885-3 0  9996
2 43879  97.5820 162.2294 0009304 107.3337 252.8947 15.77762114419675
UWE-4
1 43880U 18111E   26222.26371853  .00020541  00000-0  37517-3 0  9992
2 43880  97.5831 153.2766 0009715 117.8225 242.4011 15.49387180419145
Sparrow
1 43881U 18111F   26222.37244361  .00964234  54000-3  10776-2 0  9993
2 43881  97.5981 169.3989 0011517 156.6372 203.5437 16.09423128419964
Prox-1
1 44339U 19036A   26222.39191521  .00007482  00000-0  69619-3 0  9992
2 44339  23.9944 111.8208 0005878 304.5026  55.4918 14.91776406381576
Taurus 1
1 44530U 19059C   26222.40568959  .00003700  00000-0  58956-3 0  9996
2 44530  98.6458  30.6340 0009455 136.9723 223.2223 14.72606064366623
TO-108
1 44881U 19093C   26222.49917144  .00000980  00000-0  11641-3 0  9993
2 44881  97.7503 293.3992 0011942 268.6582  91.3266 14.86595791359480
RS-44
1 44909U 19096E   26222.49650432  .00000002  00000-0 -38493-4 0  9992
2 44909  82.5234 303.6236 0217711  17.7013 343.1522 12.79748733309297
SALSAT
1 46495U 20068K   26222.48822593  .00004284  00000-0  14795-3 0  9996
2 46495  97.8873 228.8939 0011389 109.2749 250.9724 15.30498432323665
CSS (TIANHE-1)
1 48274U 21035A   26222.48785962  .00010109  00000-0  13049-3 0  9990
2 48274  41.4696 352.3720 0001077 264.5923  95.4792 15.58950854301645
TeikyoSat 4
1 49396U 21102B   26222.54060432  .00000936  00000-0  61794-4 0  9994
2 49396  97.3656 249.9108 0013700 104.3833 255.8918 15.09678093260920
Z-Sat
1 49399U 21102E   26222.56424384  .00003555  00000-0  17418-3 0  9992
2 49399  97.3310 256.2410 0017987  60.4745 299.8280 15.18646814261693
KOSEN 1
1 49402U 21102H   26222.06595050  .00004593  00000-0  17277-3 0  9997
2 49402  97.3158 263.1911 0013905  24.8346 335.3560 15.27543178262246
HO-113
1 50466U 21131B   26222.47836602  .00000127  00000-0  52709-4 0  9996
2 50466  98.4980 314.5746 0003002 306.3884  53.7028 14.41400941242931
SNUGLITE 2
1 52899U 22065F   26222.35207966  .00000442  00000-0  92631-4 0  9995
2 52899  98.2272   7.1106 0006900 204.5491 155.5384 14.64434685218928
UmKA 1 (RS40S)
1 57172U 23091G   26222.49687816  .00003143  00000-0  14321-3 0  9995
2 57172  97.5016 280.9937 0010833 292.2864  67.7222 15.21367214172264
CubeBel-2 (EU11S)
1 57175U 23091K   26222.47438301  .00006787  00000-0  23348-3 0  9995
2 57175  97.5018 286.2122 0007673 282.2937  77.7444 15.30379537172608
RS-38S
1 57189U 23091Z   26222.51486223  .00008752  00000-0  23920-3 0  9991
2 57189  97.5061 293.1413 0005992 222.9713 137.1064 15.37618311173036
